Orbital Elements at Epoch 2459200.5 (2020-Dec-17.0) TDB
Reference: JPL 24 (heliocentric ecliptic J2000)
Element | Value | Uncertainty (1-sigma) | Units |
e | .2589974249379094 | 3.1256e-08 | |
a | 2.257744451336082 | 9.1961e-09 | au |
q | 1.672994452272183 | 6.8554e-08 | au |
i | 22.08048792731453 | 6.0275e-06 | deg |
node | 23.83723973140802 | 8.8818e-06 | deg |
peri | 260.8729076977605 | 1.5605e-05 | deg |
M | 88.51456459370009 | 1.2881e-05 | deg |
tp | 2458895.834807987999 (2020-Feb-16.33480799) | 4.3997e-05 | TDB |
period | 1239.112112540706 3.39 | 7.5706e-06 2.073e-08 | d yr |
n | .2905306116827855 | 1.7751e-09 | deg/d |
Q | 2.84249445039998 | 1.1578e-08 | au |
|
| | Orbit Determination Parameters
Additional Information
|